[Iaude] MPEC T238: 2023 TH10 [a=2.49,e=0.50,i=2.9,H=23.2]

mpec at marsden.cfa.harvard.edu mpec at marsden.cfa.harvard.edu
Sat Oct 14 03:58:49 EDT 2023


M.P.E.C. 2023-T238                             Issued 2023 October 14, 07:57 UT

     The Minor Planet Electronic Circulars contain information on unusual
         minor planets, routine data on comets and natural satellites,
         and occasional editorial announcements.  They are published
    on behalf of Division F of the International Astronomical Union by the
          Minor Planet Center, Smithsonian Astrophysical Observatory,
                          Cambridge, MA 02138, U.S.A.
			  
             Prepared using the Tamkin Foundation Computer Network

                              MPC at CFA.HARVARD.EDU
            URL https://www.minorplanetcenter.net/    ISSN 1523-6714

                                   2023 TH10                                    


Observations:
     K23T10H 1C2023 10 05.37725 01 41 01.92 +13 52 15.6          21.0 GVET238G96
     K23T10H 1C2023 10 05.38240 01 41 02.23 +13 52 21.7                VET238G96
     K23T10H 1C2023 10 05.38752 01 41 02.55 +13 52 26.9                VET238G96
     K23T10H*1C2023 10 11.26919501 47 42.760+15 49 45.91         21.74GVET238G96
     K23T10H 1C2023 10 11.27435301 47 43.040+15 49 52.72         21.54GVET238G96
     K23T10H 1C2023 10 11.27951001 47 43.343+15 49 58.30         20.70GVET238G96
     K23T10H 1C2023 10 11.28467901 47 43.652+15 50 04.63         21.46GVET238G96
     K23T10H  C2023 10 11.32164101 47 45.583+15 50 49.29         21.3 GVET238H01
     K23T10H  C2023 10 11.32545801 47 45.798+15 50 53.92         21.7 GVET238H01
     K23T10H  C2023 10 11.33809501 47 46.514+15 51 09.23         21.3 GVET238H01
     K23T10H  C2023 10 11.34609801 47 46.958+15 51 18.84         21.2 GVET238H01
     K23T10H KC2023 10 11.37082901 47 48.469+15 51 49.46         21.95GVET238I52
     K23T10H KC2023 10 11.37656101 47 48.761+15 51 56.48         21.84GVET238I52
     K23T10H KC2023 10 11.38229401 47 49.124+15 52 03.29         22.16GVET238I52
     K23T10H KC2023 10 11.38803001 47 49.434+15 52 09.95         21.45GVET238I52
     K23T10H KC2023 10 12.21920101 48 46.88 +16 09 00.8          21.5 VuET238H21
     K23T10H KC2023 10 12.22758901 48 47.35 +16 09 11.2          21.4 VuET238H21
     K23T10H KC2023 10 12.23336701 48 47.70 +16 09 18.3          21.5 VuET238H21
     K23T10H KC2023 10 12.23634901 48 47.86 +16 09 22.3          20.9 VuET238H21
     K23T10H KC2023 10 12.42114101 48 59.101+16 13 09.70         21.22GVET238V06
     K23T10H KC2023 10 12.42521401 48 59.321+16 13 14.34         21.29GVET238V06
     K23T10H KC2023 10 12.42928401 48 59.544+16 13 19.13         21.49GVET238V06
     K23T10H KC2023 10 12.43335701 48 59.774+16 13 24.10         21.49GVET238V06
     K23T10H  C2023 10 14.22745301 51 03.830+16 50 02.09         21.3 GVET238H01
     K23T10H  C2023 10 14.23206201 51 04.080+16 50 08.20         20.9 GVET238H01
     K23T10H  C2023 10 14.24143401 51 04.636+16 50 19.74         20.6 GVET238H01
     K23T10H  C2023 10 14.24797401 51 04.997+16 50 27.98         20.7 GVET238H01

Observer details:
G96 Mt. Lemmon Survey.  Observers G. J. Leonard, D. Rankin.  Measurers B.
    Gray, D. Rankin, F. C. Shelly, E. C. Beshore, D. Fay, J. B. Fazekas, D. C.
    Fuls, A. R. Gibbs, A. D. Grauer, H. Groeller, J. K. Hogan, R. A. Kowalski,
    S. M. Larson, G. J. Leonard, R. L. Seaman, K. W. Wierzchos.  1.5-m
    reflector + 10K CCD.
H01 Magdalena Ridge Observatory, Socorro.  Observers W. H. Ryan, E. V. Ryan.
    Measurer W. H. Ryan.  2.4-m f/8.9 Ritchey-Chretien + CCD.
H21 Astronomical Research Observatory, Westfield.  Observer R. Holmes.
    Measurers T. Linder, R. Holmes, L. Horn.  0.76-m f/3.0 astrograph + CCD.
I52 Steward Observatory, Mt. Lemmon Station.  Observer J. B. Fazekas.
    Measurers E. C. Beshore, D. Fay, J. B. Fazekas, D. C. Fuls, A. R. Gibbs,
    A. D. Grauer, H. Groeller, J. K. Hogan, R. A. Kowalski, S. M. Larson, G.
    J. Leonard, D. Rankin, R. L. Seaman, F. C. Shelly, K. W. Wierzchos.  1.0-m
    prime focus + CCD.
V06 Catalina Sky Survey-Kuiper.  Observer J. B. Fazekas.  Measurers E. C.
    Beshore, D. Fay, J. B. Fazekas, D. C. Fuls, A. R. Gibbs, A. D. Grauer, H.
    Groeller, J. K. Hogan, R. A. Kowalski, S. M. Larson, G. J. Leonard, D.
    Rankin, R. L. Seaman, F. C. Shelly, K. W. Wierzchos.  1.55-m reflector +
    1K CCD.

Orbital elements:
2023 TH10                                                Earth MOID = 0.2431 AU
Epoch 2023 Sept. 13.0 TT = JDT 2460200.5                Veres                   
M 346.22857              (2000.0)            P               Q                  
n   0.25090748     Peri.   42.45900     +0.72750722     -0.68609960             
a   2.4895851      Node     0.86425     +0.61521442     +0.65185392             
e   0.5049340      Incl.    2.88164     +0.30371772     +0.32303839             
P   3.93           H   23.25          G   0.15           U   9                  
Residuals in seconds of arc
231005 G96  0.4-  0.4+    231011 H01  0.0   0.1+    231012 H21  0.5-  0.9+
231005 G96  0.2-  0.5+    231011 H01  0.1-  0.0     231012 V06  0.3+  0.2+
231005 G96  0.2+  0.3-    231011 I52  0.1+  0.1-    231012 V06  0.1+  0.0
231011 G96  0.0   0.2+    231011 I52  0.4-  0.0     231012 V06  0.1-  0.1-
231011 G96  0.1-  0.7+    231011 I52  0.2+  0.1-    231012 V06  0.2-  0.1+
231011 G96  0.0   0.1-    231011 I52  0.0   0.3-    231014 H01  0.1+  0.2-
231011 G96  0.3+  0.1-    231012 H21  0.6-  0.5+    231014 H01  0.1-  0.1+
231011 H01  0.1-  0.1+    231012 H21  0.7-  0.6+    231014 H01  0.2+  0.1-
231011 H01  0.1-  0.1+    231012 H21  0.4-  0.6+    231014 H01  0.0   0.0

Ephemeris:
2023 TH10                a,e,i = 2.49, 0.50, 3                   q = 1.2325
Date    TT    R. A. (2000) Decl.     Delta      r    Elong.  Phase     V
2023 09 14    01 15 49.7 +07 38 47   0.3951  1.3633   150.2    21.5    23.0
...
2023 09 29    01 33 44.0 +11 51 16   0.3173  1.3034   159.1    15.9    22.2
...
2023 10 07    01 42 52.7 +14 24 19   0.2873  1.2780   163.7    12.7    21.8
...
2023 10 13    01 49 39.4 +16 25 07   0.2699  1.2624   166.9    10.3    21.6
2023 10 14    01 50 47.3 +16 45 33   0.2675  1.2601   167.4    10.0    21.5
2023 10 15    01 51 55.4 +17 06 02   0.2651  1.2578   167.8     9.6    21.5
...
2023 10 21    01 58 50.9 +19 09 02   0.2537  1.2464   170.2     7.8    21.3
...
2023 10 29    02 08 37.2 +21 48 13   0.2451  1.2364   171.4     6.9    21.2
...
2023 11 13    02 29 17.4 +25 57 25   0.2493  1.2343   167.4    10.0    21.3

M. P. C. Staff               (C) Copyright 2023 MPC           M.P.E.C. 2023-T238





More information about the Iaude mailing list